Year,Month,Day,Hour,Minute,Value (Times are PST for temperature in C)
2009,04,26,00,00,7.40
2009,04,26,00,01,7.30
2009,04,26,00,02,7.20
2009,04,26,00,03,7.10
2009,04,26,00,04,7.10
2009,04,26,00,05,7.00
2009,04,26,00,06,6.90
2009,04,26,00,07,6.80
2009,04,26,00,08,6.70
2009,04,26,00,09,6.60
2009,04,26,00,10,6.60
2009,04,26,00,11,6.50
2009,04,26,00,12,6.40
2009,04,26,00,13,6.30
2009,04,26,01,02,5.10
2009,04,26,01,03,5.10
2009,04,26,01,04,5.10
2009,04,26,01,05,5.00
2009,04,26,01,06,4.90
2009,04,26,01,07,4.90
2009,04,26,01,08,4.90
2009,04,26,01,09,4.90
2009,04,26,01,10,4.90
2009,04,26,01,11,4.90
2009,04,26,01,12,4.90
2009,04,26,01,13,4.90
2009,04,26,01,14,4.90
2009,04,26,01,15,4.90
2009,04,26,01,16,4.90
2009,04,26,01,17,4.90
2009,04,26,01,18,4.80
2009,04,26,01,19,4.80
2009,04,26,01,20,4.80
2009,04,26,01,21,4.80
2009,04,26,01,22,4.80
2009,04,26,01,23,4.80
2009,04,26,01,24,4.80
2009,04,26,01,25,4.80
2009,04,26,01,26,4.80
2009,04,26,01,27,4.80
2009,04,26,01,28,4.80
2009,04,26,01,29,4.80
2009,04,26,01,30,4.70
2009,04,26,01,31,4.70
2009,04,26,01,32,4.70
2009,04,26,01,33,4.70
2009,04,26,01,34,4.60
2009,04,26,01,35,4.60
2009,04,26,01,36,4.60
2009,04,26,01,37,4.60
2009,04,26,01,38,4.60
2009,04,26,01,39,4.60
2009,04,26,01,40,4.50
2009,04,26,01,41,4.50
2009,04,26,01,42,4.50
2009,04,26,01,43,4.40
2009,04,26,01,44,4.40
2009,04,26,01,45,4.40
2009,04,26,01,46,4.40
2009,04,26,01,47,4.30
2009,04,26,01,48,4.30
2009,04,26,01,49,4.30
2009,04,26,01,50,4.30
2009,04,26,01,51,4.20
2009,04,26,01,52,4.20
2009,04,26,01,53,4.20
2009,04,26,01,54,4.20
2009,04,26,01,55,4.20
2009,04,26,01,56,4.20
2009,04,26,01,57,4.20
2009,04,26,01,58,4.20
2009,04,26,01,59,4.20
2009,04,26,02,00,4.10
2009,04,26,02,01,4.10
2009,04,26,02,02,4.10
2009,04,26,02,03,4.10
2009,04,26,02,04,4.10
2009,04,26,02,05,4.10
2009,04,26,02,06,4.10
2009,04,26,02,07,4.10
2009,04,26,02,08,4.00
2009,04,26,02,09,4.00
2009,04,26,02,10,4.00
2009,04,26,02,11,4.00
2009,04,26,02,12,4.00
2009,04,26,02,13,4.00
2009,04,26,02,14,4.00
2009,04,26,02,15,3.90
2009,04,26,02,16,3.90
2009,04,26,02,17,3.90
2009,04,26,02,18,3.90
2009,04,26,02,19,3.90
2009,04,26,02,20,3.90
2009,04,26,02,21,3.90
2009,04,26,02,22,3.90
2009,04,26,02,23,3.80
2009,04,26,02,24,3.80
2009,04,26,02,25,3.80
2009,04,26,02,26,3.80
2009,04,26,02,27,3.80
2009,04,26,02,28,3.80
2009,04,26,02,29,3.80
2009,04,26,02,30,3.80
2009,04,26,02,31,3.80
2009,04,26,02,32,3.80
2009,04,26,02,33,3.80
2009,04,26,02,34,3.80
2009,04,26,02,35,3.80
2009,04,26,02,36,3.70
2009,04,26,02,37,3.70
2009,04,26,02,38,3.70
2009,04,26,02,39,3.70
2009,04,26,02,40,3.60
2009,04,26,02,41,3.60
2009,04,26,02,42,3.60
2009,04,26,02,43,3.60
2009,04,26,02,44,3.50
2009,04,26,02,45,3.50
2009,04,26,02,46,3.50
2009,04,26,02,47,3.50
2009,04,26,02,48,3.50
2009,04,26,02,49,3.50
2009,04,26,02,50,3.40
2009,04,26,02,51,3.40
2009,04,26,02,52,3.40
2009,04,26,02,53,3.40
2009,04,26,02,54,3.40
2009,04,26,02,55,3.40
2009,04,26,02,56,3.40
2009,04,26,02,57,3.40
2009,04,26,02,58,3.40
2009,04,26,02,59,3.40
2009,04,26,03,00,3.40
2009,04,26,03,01,3.40
2009,04,26,03,02,3.40
2009,04,26,03,03,3.40
2009,04,26,03,04,3.40
2009,04,26,03,05,3.40
2009,04,26,03,06,3.40
2009,04,26,03,07,3.40
2009,04,26,03,08,3.40
2009,04,26,03,09,3.40
2009,04,26,03,10,3.30
2009,04,26,03,11,3.40
2009,04,26,03,12,3.40
2009,04,26,03,13,3.40
2009,04,26,03,14,3.30
2009,04,26,03,15,3.30
2009,04,26,03,16,3.30
2009,04,26,03,17,3.30
2009,04,26,03,18,3.30
2009,04,26,03,19,3.30
2009,04,26,03,20,3.30
2009,04,26,03,21,3.30
2009,04,26,03,22,3.30
2009,04,26,03,23,3.30
2009,04,26,03,24,3.30
2009,04,26,03,25,3.30
2009,04,26,03,26,3.30
2009,04,26,03,27,3.30
2009,04,26,03,28,3.30
2009,04,26,03,29,3.30
2009,04,26,03,30,3.30
2009,04,26,03,31,3.20
2009,04,26,03,32,3.20
2009,04,26,03,33,3.20
2009,04,26,03,34,3.20
2009,04,26,03,35,3.20
2009,04,26,03,36,3.20
2009,04,26,03,37,3.20
2009,04,26,03,38,3.20
2009,04,26,03,39,3.20
2009,04,26,03,40,3.20
2009,04,26,03,41,3.20
2009,04,26,03,42,3.20
2009,04,26,03,43,3.20
2009,04,26,03,44,3.10
2009,04,26,03,45,3.10
2009,04,26,03,46,3.10
2009,04,26,03,47,3.10
2009,04,26,03,48,3.10
2009,04,26,03,49,3.10
2009,04,26,03,50,3.10
2009,04,26,03,51,3.10
2009,04,26,03,52,3.10
2009,04,26,03,53,3.10
2009,04,26,03,54,3.10
2009,04,26,03,55,3.10
2009,04,26,03,56,3.10
2009,04,26,03,57,3.10
2009,04,26,03,58,3.10
2009,04,26,03,59,3.10
2009,04,26,04,00,3.10
2009,04,26,04,01,3.10
2009,04,26,04,02,3.10
2009,04,26,04,03,3.10
2009,04,26,04,04,3.10
2009,04,26,04,05,3.10
2009,04,26,04,06,3.00
2009,04,26,04,07,2.90
2009,04,26,04,08,2.90
2009,04,26,04,09,2.90
2009,04,26,04,10,2.90
2009,04,26,04,11,2.90
2009,04,26,04,12,2.90
2009,04,26,04,13,2.90
2009,04,26,04,14,2.90
2009,04,26,04,15,2.90
2009,04,26,04,16,2.90
2009,04,26,04,17,2.90
2009,04,26,04,18,3.00
2009,04,26,04,19,3.10
2009,04,26,04,20,3.10
2009,04,26,04,21,3.10
2009,04,26,04,22,3.10
2009,04,26,04,23,3.10
2009,04,26,04,24,3.10
2009,04,26,04,25,3.10
2009,04,26,04,26,3.10
2009,04,26,04,27,3.10
2009,04,26,04,28,3.10
2009,04,26,04,29,3.10
2009,04,26,04,30,3.20
2009,04,26,04,31,3.20
2009,04,26,04,32,3.20
2009,04,26,04,33,3.20
2009,04,26,04,34,3.20
2009,04,26,04,35,3.20
2009,04,26,04,36,3.20
2009,04,26,04,37,3.20
2009,04,26,04,38,3.20
2009,04,26,04,39,3.20
2009,04,26,04,40,3.20
2009,04,26,04,41,3.20
2009,04,26,04,42,3.10
2009,04,26,04,43,3.10
2009,04,26,04,44,3.10
2009,04,26,04,45,3.10
2009,04,26,04,46,3.10
2009,04,26,04,47,3.10
2009,04,26,04,48,3.10
2009,04,26,04,49,3.00
2009,04,26,04,50,2.90
2009,04,26,04,51,2.90
2009,04,26,04,52,2.90
2009,04,26,04,53,2.90
2009,04,26,04,54,2.90
2009,04,26,04,55,2.80
2009,04,26,04,56,2.80
2009,04,26,04,57,2.80
2009,04,26,04,58,2.80
2009,04,26,04,59,2.70
2009,04,26,05,00,2.70
2009,04,26,05,01,2.70
2009,04,26,05,02,2.70
2009,04,26,05,03,2.70
2009,04,26,05,04,2.70
2009,04,26,05,05,2.70
2009,04,26,05,06,2.70
2009,04,26,05,07,2.70
2009,04,26,05,08,2.70
2009,04,26,05,09,2.70
2009,04,26,05,10,2.70
2009,04,26,05,11,2.70
2009,04,26,05,12,2.70
2009,04,26,05,13,2.70
2009,04,26,05,14,2.70
2009,04,26,05,15,2.70
2009,04,26,05,16,2.70
2009,04,26,05,17,2.70
2009,04,26,05,18,2.60
2009,04,26,05,19,2.60
2009,04,26,05,20,2.60
2009,04,26,05,21,2.60
2009,04,26,05,22,2.60
2009,04,26,05,23,2.50
2009,04,26,05,24,2.50
2009,04,26,05,25,2.50
2009,04,26,05,26,2.50
2009,04,26,05,27,2.50
2009,04,26,05,28,2.50
2009,04,26,05,29,2.40
2009,04,26,05,30,2.40
2009,04,26,05,31,2.40
2009,04,26,05,32,2.40
2009,04,26,05,33,2.40
2009,04,26,05,34,2.40
2009,04,26,05,35,2.40
2009,04,26,05,36,2.40
2009,04,26,05,37,2.30
2009,04,26,05,38,2.30
2009,04,26,05,39,2.30
2009,04,26,05,40,2.30
2009,04,26,05,41,2.30
2009,04,26,05,42,2.30
2009,04,26,05,43,2.30
2009,04,26,05,44,2.30
2009,04,26,05,45,2.30
2009,04,26,05,46,2.30
2009,04,26,05,47,2.30
2009,04,26,05,48,2.30
2009,04,26,05,49,2.30
2009,04,26,05,50,2.30
2009,04,26,05,51,2.30
2009,04,26,05,52,2.30
2009,04,26,05,53,2.30
2009,04,26,05,54,2.20
2009,04,26,05,55,2.20
2009,04,26,05,56,2.20
2009,04,26,05,57,2.20
2009,04,26,05,58,2.20
2009,04,26,05,59,2.20
2009,04,26,06,00,2.20
2009,04,26,06,01,2.20
2009,04,26,06,02,2.20
2009,04,26,06,03,2.20
2009,04,26,06,04,2.20
2009,04,26,06,05,2.20
2009,04,26,06,06,2.20
2009,04,26,06,07,2.20
2009,04,26,06,08,2.20
2009,04,26,06,09,2.20
2009,04,26,06,10,2.20
2009,04,26,06,11,2.20
2009,04,26,06,12,2.20
2009,04,26,06,13,2.20
2009,04,26,06,14,2.20
2009,04,26,06,15,2.20
2009,04,26,06,16,2.20
2009,04,26,06,17,2.20
2009,04,26,06,18,2.20
2009,04,26,06,19,2.20
2009,04,26,06,20,2.20
2009,04,26,06,21,2.20
2009,04,26,06,22,2.20
2009,04,26,06,23,2.10
2009,04,26,06,24,2.10
2009,04,26,06,25,2.10
2009,04,26,06,26,2.10
2009,04,26,06,27,2.10
2009,04,26,06,28,2.10
2009,04,26,06,29,2.00
2009,04,26,06,30,2.00
2009,04,26,06,31,2.00
2009,04,26,06,32,2.00
2009,04,26,06,33,2.10
2009,04,26,06,34,2.10
2009,04,26,06,35,2.10
2009,04,26,06,36,2.10
2009,04,26,06,37,2.10
2009,04,26,06,38,2.10
2009,04,26,06,39,2.10
2009,04,26,06,40,2.10
2009,04,26,06,41,2.10
2009,04,26,06,42,2.10
2009,04,26,06,43,2.10
2009,04,26,06,44,2.10
2009,04,26,06,45,2.10
2009,04,26,06,46,2.20
2009,04,26,06,47,2.20
2009,04,26,06,48,2.20
2009,04,26,06,49,2.20
2009,04,26,06,50,2.20
2009,04,26,06,51,2.20
2009,04,26,06,52,2.20
2009,04,26,06,53,2.20
2009,04,26,06,54,2.30
2009,04,26,06,55,2.30
2009,04,26,06,56,2.40
2009,04,26,06,57,2.40
2009,04,26,06,58,2.40
2009,04,26,06,59,2.40
2009,04,26,07,00,2.50
2009,04,26,07,01,2.50
2009,04,26,07,02,2.50
2009,04,26,07,03,2.60
2009,04,26,07,04,2.60
2009,04,26,07,05,2.70
2009,04,26,07,06,2.70
2009,04,26,07,07,2.70
2009,04,26,07,08,2.80
2009,04,26,07,09,2.80
2009,04,26,07,10,2.80
2009,04,26,07,11,2.90
2009,04,26,07,12,2.90
2009,04,26,07,13,2.90
2009,04,26,07,14,3.00
2009,04,26,07,15,3.10
2009,04,26,07,16,3.10
2009,04,26,07,17,3.10
2009,04,26,07,18,3.20
2009,04,26,07,19,3.20
2009,04,26,07,20,3.20
2009,04,26,07,21,3.30
2009,04,26,07,22,3.30
2009,04,26,07,23,3.30
2009,04,26,07,24,3.30
2009,04,26,07,25,3.40
2009,04,26,07,26,3.40
2009,04,26,07,27,3.40
2009,04,26,07,28,3.50
2009,04,26,07,29,3.50
2009,04,26,07,30,3.60
2009,04,26,07,31,3.60
2009,04,26,07,32,3.60
2009,04,26,07,33,3.70
2009,04,26,07,34,3.70
2009,04,26,07,35,3.70
2009,04,26,07,36,3.80
2009,04,26,07,37,3.80
2009,04,26,07,38,3.80
2009,04,26,07,39,3.90
2009,04,26,07,40,3.90
2009,04,26,07,41,4.00
2009,04,26,07,42,4.00
2009,04,26,07,43,4.10
2009,04,26,07,44,4.20
2009,04,26,07,45,4.20
2009,04,26,07,46,4.30
2009,04,26,07,47,4.40
2009,04,26,07,48,4.40
2009,04,26,07,49,4.50
2009,04,26,07,50,4.60
2009,04,26,07,51,4.60
2009,04,26,07,52,4.70
2009,04,26,07,53,4.80
2009,04,26,07,54,4.80
2009,04,26,07,55,5.00
2009,04,26,07,56,5.10
2009,04,26,07,57,5.10
2009,04,26,07,58,5.20
2009,04,26,07,59,5.30
2009,04,26,08,00,5.50
2009,04,26,08,01,5.60
2009,04,26,08,02,5.70
2009,04,26,08,03,5.90
2009,04,26,08,04,6.10
2009,04,26,08,05,6.20
2009,04,26,08,06,6.40
2009,04,26,08,07,6.50
2009,04,26,08,08,6.70
2009,04,26,08,09,6.80
2009,04,26,08,10,6.90
2009,04,26,08,11,7.00
2009,04,26,08,12,7.10
2009,04,26,08,13,7.10
2009,04,26,08,14,7.20
2009,04,26,08,15,7.30
2009,04,26,08,16,7.30
2009,04,26,08,17,7.40
2009,04,26,08,18,7.40
2009,04,26,08,19,7.40
2009,04,26,08,20,7.40
2009,04,26,08,21,7.40
2009,04,26,08,22,7.40
2009,04,26,08,23,7.40
2009,04,26,08,24,7.50
2009,04,26,08,25,7.50
2009,04,26,08,26,7.50
2009,04,26,08,27,7.50
2009,04,26,08,28,7.60
2009,04,26,08,29,7.60
2009,04,26,08,30,7.60
2009,04,26,08,31,7.60
2009,04,26,08,32,7.60
2009,04,26,08,33,7.70
2009,04,26,08,34,7.70
2009,04,26,08,35,7.70
2009,04,26,08,36,7.70
2009,04,26,08,37,7.70
2009,04,26,08,38,7.80
2009,04,26,08,39,7.80
2009,04,26,08,40,7.80
2009,04,26,08,41,7.80
2009,04,26,08,42,7.80
2009,04,26,08,43,7.80
2009,04,26,08,44,7.80
2009,04,26,08,45,7.80
2009,04,26,08,46,7.80
2009,04,26,08,47,7.80
2009,04,26,08,48,7.80
2009,04,26,08,49,7.80
2009,04,26,08,50,7.80
2009,04,26,08,51,7.80
2009,04,26,08,52,7.90
2009,04,26,08,53,7.90
2009,04,26,08,54,7.90
2009,04,26,08,55,7.90
2009,04,26,08,56,7.90
2009,04,26,08,57,7.90
2009,04,26,08,58,7.90
2009,04,26,08,59,8.00
2009,04,26,09,00,8.00
2009,04,26,09,01,8.00
2009,04,26,09,02,8.00
2009,04,26,09,03,8.00
2009,04,26,09,04,8.00
2009,04,26,09,05,8.00
2009,04,26,09,06,8.10
2009,04,26,09,07,8.10
2009,04,26,09,08,8.10
2009,04,26,09,09,8.20
2009,04,26,09,10,8.20
2009,04,26,09,11,8.20
2009,04,26,09,12,8.20
2009,04,26,09,13,8.20
2009,04,26,09,14,8.20
2009,04,26,09,15,8.20
2009,04,26,09,16,8.20
2009,04,26,09,17,8.20
2009,04,26,09,18,8.20
2009,04,26,09,19,8.20
2009,04,26,09,20,8.20
2009,04,26,09,21,8.20
2009,04,26,09,22,8.20
2009,04,26,09,23,8.20
2009,04,26,09,24,8.20
2009,04,26,09,25,8.20
2009,04,26,09,26,8.30
2009,04,26,09,27,8.30
2009,04,26,09,28,8.30
2009,04,26,09,29,8.40
2009,04,26,09,30,8.40
2009,04,26,09,31,8.50
2009,04,26,09,32,8.50
2009,04,26,09,33,8.60
2009,04,26,09,34,8.60
2009,04,26,09,35,8.60
2009,04,26,09,36,8.60
2009,04,26,09,37,8.60
2009,04,26,09,38,8.60
2009,04,26,09,39,8.60
2009,04,26,09,40,8.50
2009,04,26,09,41,8.60
2009,04,26,09,42,8.60
2009,04,26,09,43,8.70
2009,04,26,09,44,8.70
2009,04,26,09,45,8.70
2009,04,26,09,46,8.70
2009,04,26,09,47,8.80
2009,04,26,09,48,8.80
2009,04,26,09,49,8.80
2009,04,26,09,50,8.90
2009,04,26,09,51,8.90
2009,04,26,09,52,8.90
2009,04,26,09,53,8.90
2009,04,26,09,54,8.90
2009,04,26,09,55,8.90
2009,04,26,09,56,9.00
2009,04,26,09,57,8.90
2009,04,26,09,58,8.90
2009,04,26,09,59,8.90
2009,04,26,10,00,8.90
2009,04,26,10,01,9.00
2009,04,26,10,02,9.10
2009,04,26,10,03,9.20
2009,04,26,10,04,9.20
2009,04,26,10,05,9.20
2009,04,26,10,06,9.20
2009,04,26,10,07,9.20
2009,04,26,10,08,9.20
2009,04,26,10,09,9.30
2009,04,26,10,10,9.30
2009,04,26,10,11,9.20
2009,04,26,10,12,9.20
2009,04,26,10,13,9.20
2009,04,26,10,14,9.20
2009,04,26,10,15,9.30
2009,04,26,10,16,9.30
2009,04,26,10,17,9.40
2009,04,26,10,18,9.40
2009,04,26,10,19,9.40
2009,04,26,10,20,9.40
2009,04,26,10,21,9.50
2009,04,26,10,22,9.50
2009,04,26,10,23,9.50
2009,04,26,10,24,9.50
2009,04,26,10,25,9.40
2009,04,26,10,26,9.40
2009,04,26,10,27,9.40
2009,04,26,10,28,9.50
2009,04,26,10,29,9.50
2009,04,26,10,30,9.50
2009,04,26,10,31,9.50
2009,04,26,10,32,9.40
2009,04,26,10,33,9.40
2009,04,26,10,34,9.40
2009,04,26,10,35,9.40
2009,04,26,10,36,9.40
2009,04,26,10,37,9.40
2009,04,26,10,38,9.30
2009,04,26,10,39,9.30
2009,04,26,10,40,9.40
2009,04,26,10,41,9.40
2009,04,26,10,42,9.50
2009,04,26,10,43,9.50
2009,04,26,10,44,9.50
2009,04,26,10,45,9.60
2009,04,26,10,46,9.60
2009,04,26,10,47,9.60
2009,04,26,10,48,9.60
2009,04,26,10,49,9.60
2009,04,26,10,50,9.70
2009,04,26,10,51,9.60
2009,04,26,10,52,9.50
2009,04,26,10,53,9.40
2009,04,26,10,54,9.40
2009,04,26,10,55,9.40
2009,04,26,10,56,9.50
2009,04,26,10,57,9.60
2009,04,26,10,58,9.60
2009,04,26,10,59,9.70
2009,04,26,11,00,9.80
2009,04,26,11,01,9.80
2009,04,26,11,02,9.80
2009,04,26,11,03,9.90
2009,04,26,11,04,9.90
2009,04,26,11,05,9.90
2009,04,26,11,06,9.90
2009,04,26,11,07,9.90
2009,04,26,11,08,9.80
2009,04,26,11,09,9.70
2009,04,26,11,10,9.70
2009,04,26,11,11,9.70
2009,04,26,11,12,9.80
2009,04,26,11,13,9.80
2009,04,26,11,14,9.90
2009,04,26,11,15,9.90
2009,04,26,11,16,10.00
2009,04,26,11,17,10.10
2009,04,26,11,18,10.10
2009,04,26,11,19,10.20
2009,04,26,11,20,10.30
2009,04,26,11,21,10.40
2009,04,26,11,22,10.40
2009,04,26,11,23,10.40
2009,04,26,11,24,10.40
2009,04,26,11,25,10.40
2009,04,26,11,26,10.40
2009,04,26,11,27,10.30
2009,04,26,11,28,10.30
2009,04,26,11,29,10.30
2009,04,26,11,30,10.30
2009,04,26,11,31,10.20
2009,04,26,11,32,10.20
2009,04,26,11,33,10.30
2009,04,26,11,34,10.30
2009,04,26,11,35,10.30
2009,04,26,11,36,10.30
2009,04,26,11,37,10.40
2009,04,26,11,38,10.40
2009,04,26,11,39,10.40
2009,04,26,11,40,10.40
2009,04,26,11,41,10.40
2009,04,26,11,42,10.40
2009,04,26,11,43,10.40
2009,04,26,11,44,10.40
2009,04,26,11,45,10.40
2009,04,26,11,46,10.50
2009,04,26,11,47,10.60
2009,04,26,11,48,10.70
2009,04,26,11,49,10.70
2009,04,26,11,50,10.60
2009,04,26,11,51,10.60
2009,04,26,11,52,10.50
2009,04,26,11,53,10.40
2009,04,26,11,54,10.40
2009,04,26,11,55,10.40
2009,04,26,11,56,10.40
2009,04,26,11,57,10.30
2009,04,26,11,58,10.20
2009,04,26,11,59,10.10
2009,04,26,12,00,10.10
2009,04,26,12,01,10.10
2009,04,26,12,02,10.10
2009,04,26,12,03,10.10
2009,04,26,12,04,10.10
2009,04,26,12,05,9.90
2009,04,26,12,06,10.00
2009,04,26,12,07,10.10
2009,04,26,12,08,9.90
2009,04,26,12,09,9.90
2009,04,26,12,10,10.00
2009,04,26,12,11,10.10
2009,04,26,12,12,10.10
2009,04,26,12,13,10.10
2009,04,26,12,14,10.20
2009,04,26,12,15,10.40
2009,04,26,12,16,10.50
2009,04,26,12,17,10.60
2009,04,26,12,18,10.70
2009,04,26,12,19,10.80
2009,04,26,12,20,10.90
2009,04,26,12,21,11.10
2009,04,26,12,22,11.20
2009,04,26,12,23,11.40
2009,04,26,12,24,11.40
2009,04,26,12,25,11.50
2009,04,26,12,26,11.60
2009,04,26,12,27,11.60
2009,04,26,12,28,11.60
2009,04,26,12,29,11.60
2009,04,26,12,30,11.60
2009,04,26,12,31,11.60
2009,04,26,12,32,11.60
2009,04,26,12,33,11.50
2009,04,26,12,34,11.40
2009,04,26,12,35,11.30
2009,04,26,12,36,11.10
2009,04,26,12,37,11.00
2009,04,26,12,38,10.90
2009,04,26,12,39,10.80
2009,04,26,12,40,10.80
2009,04,26,12,41,10.80
2009,04,26,12,42,10.80
2009,04,26,12,43,10.70
2009,04,26,12,44,10.80
2009,04,26,12,45,10.80
2009,04,26,12,46,10.90
2009,04,26,12,47,11.10
2009,04,26,12,48,11.10
2009,04,26,12,49,11.20
2009,04,26,12,50,11.30
2009,04,26,12,51,11.40
2009,04,26,12,52,11.40
2009,04,26,12,53,11.50
2009,04,26,12,54,11.60
2009,04,26,12,55,11.50
2009,04,26,12,56,11.30
2009,04,26,12,57,11.20
2009,04,26,12,58,11.20
2009,04,26,12,59,11.10
2009,04,26,13,00,11.10
2009,04,26,13,01,11.20
2009,04,26,13,02,11.30
2009,04,26,13,03,11.30
2009,04,26,13,04,11.40
2009,04,26,13,05,11.40
2009,04,26,13,06,11.40
2009,04,26,13,07,11.40
2009,04,26,13,08,11.40
2009,04,26,13,09,11.40
2009,04,26,13,10,11.40
2009,04,26,13,11,11.40
2009,04,26,13,12,11.30
2009,04,26,13,13,11.30
2009,04,26,13,14,11.20
2009,04,26,13,15,11.20
2009,04,26,13,16,11.30
2009,04,26,13,17,11.40
2009,04,26,13,18,11.40
2009,04,26,13,19,11.50
2009,04,26,13,20,11.60
2009,04,26,13,21,11.70
2009,04,26,13,22,11.80
2009,04,26,13,23,11.90
2009,04,26,13,24,12.00
2009,04,26,13,25,12.10
2009,04,26,13,26,12.10
2009,04,26,13,27,12.10
2009,04,26,13,28,12.20
2009,04,26,13,29,12.30
2009,04,26,13,30,12.40
2009,04,26,13,31,12.50
2009,04,26,13,32,12.50
2009,04,26,13,33,12.60
2009,04,26,13,34,12.60
2009,04,26,13,35,12.70
2009,04,26,13,36,12.70
2009,04,26,13,37,12.60
2009,04,26,13,38,12.40
2009,04,26,13,39,12.30
2009,04,26,13,40,12.20
2009,04,26,13,41,12.10
2009,04,26,13,42,12.00
2009,04,26,13,43,11.80
2009,04,26,13,44,11.70
2009,04,26,13,45,11.70
2009,04,26,13,46,11.60
2009,04,26,13,47,11.60
2009,04,26,13,48,11.60
2009,04,26,13,49,11.60
2009,04,26,13,50,11.60
2009,04,26,13,51,11.60
2009,04,26,13,52,11.60
2009,04,26,13,53,11.60
2009,04,26,13,54,11.70
2009,04,26,13,55,11.80
2009,04,26,13,56,11.80
2009,04,26,13,57,11.80
2009,04,26,13,58,11.80
2009,04,26,13,59,11.80
2009,04,26,14,00,11.90
2009,04,26,14,01,12.00
2009,04,26,14,02,12.10
2009,04,26,14,03,12.00
2009,04,26,14,04,11.90
2009,04,26,14,05,12.00
2009,04,26,14,06,12.10
2009,04,26,14,07,12.20
2009,04,26,14,08,12.30
2009,04,26,14,09,12.50
2009,04,26,14,10,12.70
2009,04,26,14,11,12.80
2009,04,26,14,12,12.80
2009,04,26,14,13,12.70
2009,04,26,14,14,12.60
2009,04,26,14,15,12.40
2009,04,26,14,16,12.30
2009,04,26,14,17,12.30
2009,04,26,14,18,12.30
2009,04,26,14,19,12.40
2009,04,26,14,20,12.40
2009,04,26,14,21,12.50
2009,04,26,14,22,12.60
2009,04,26,14,23,12.70
2009,04,26,14,24,12.80
2009,04,26,14,25,12.80
2009,04,26,14,26,12.70
2009,04,26,14,27,12.60
2009,04,26,14,28,12.50
2009,04,26,14,29,12.50
2009,04,26,14,30,12.40
2009,04,26,14,31,12.40
2009,04,26,14,32,12.50
2009,04,26,14,33,12.60
2009,04,26,14,34,12.60
2009,04,26,14,35,12.60
2009,04,26,14,36,12.60
2009,04,26,14,37,12.70
2009,04,26,14,38,12.70
2009,04,26,14,39,12.80
2009,04,26,14,40,13.00
2009,04,26,14,41,13.20
2009,04,26,14,42,13.30
2009,04,26,14,43,13.50
2009,04,26,14,44,13.50
2009,04,26,14,45,13.60
2009,04,26,14,46,13.60
2009,04,26,14,47,13.60
2009,04,26,14,48,13.70
2009,04,26,14,49,13.70
2009,04,26,14,50,13.70
2009,04,26,14,51,13.70
2009,04,26,14,52,13.70
2009,04,26,14,53,13.60
2009,04,26,14,54,13.50
2009,04,26,14,55,13.40
2009,04,26,14,56,13.30
2009,04,26,14,57,13.30
2009,04,26,14,58,13.40
2009,04,26,14,59,13.40
2009,04,26,15,00,13.30
2009,04,26,15,01,13.30
2009,04,26,15,02,13.30
2009,04,26,15,03,13.40
2009,04,26,15,04,13.50
2009,04,26,15,05,13.50
2009,04,26,15,06,13.60
2009,04,26,15,07,13.70
2009,04,26,15,08,13.70
2009,04,26,15,09,13.80
2009,04,26,15,10,13.90
2009,04,26,15,11,13.90
2009,04,26,15,12,13.90
2009,04,26,15,13,13.90
2009,04,26,15,14,14.00
2009,04,26,15,15,14.00
2009,04,26,15,16,14.10
2009,04,26,15,17,14.00
2009,04,26,15,18,13.80
2009,04,26,15,19,13.70
2009,04,26,15,20,13.60
2009,04,26,15,21,13.60
2009,04,26,15,22,13.50
2009,04,26,15,23,13.60
2009,04,26,15,24,13.60
2009,04,26,15,25,13.70
2009,04,26,15,26,13.70
2009,04,26,15,27,13.80
2009,04,26,15,28,13.90
2009,04,26,15,29,13.90
2009,04,26,15,30,13.90
2009,04,26,15,31,14.00
2009,04,26,15,32,14.10
2009,04,26,15,33,14.10
2009,04,26,15,34,14.20
2009,04,26,15,35,14.20
2009,04,26,15,36,14.30
2009,04,26,15,37,14.30
2009,04,26,15,38,14.40
2009,04,26,15,39,14.40
2009,04,26,15,40,14.40
2009,04,26,15,41,14.20
2009,04,26,15,42,14.00
2009,04,26,15,43,13.90
2009,04,26,15,44,13.80
2009,04,26,15,45,13.70
2009,04,26,15,46,13.70
2009,04,26,15,47,13.80
2009,04,26,15,48,13.80
2009,04,26,15,49,13.80
2009,04,26,15,50,13.90
2009,04,26,15,51,14.00
2009,04,26,15,52,14.00
2009,04,26,15,53,13.90
2009,04,26,15,54,13.90
2009,04,26,15,55,13.80
2009,04,26,15,56,13.70
2009,04,26,15,57,13.70
2009,04,26,15,58,13.70
2009,04,26,15,59,13.70
2009,04,26,16,00,13.80
2009,04,26,16,01,13.90
2009,04,26,16,02,14.00
2009,04,26,16,03,14.10
2009,04,26,16,04,14.20
2009,04,26,16,05,14.20
2009,04,26,16,06,14.20
2009,04,26,16,07,14.20
2009,04,26,16,08,14.30
2009,04,26,16,09,14.40
2009,04,26,16,10,14.40
2009,04,26,16,11,14.50
2009,04,26,16,12,14.50
2009,04,26,16,13,14.50
2009,04,26,16,14,14.50
2009,04,26,16,15,14.50
2009,04,26,16,16,14.30
2009,04,26,16,17,14.20
2009,04,26,16,18,14.20
2009,04,26,16,19,14.20
2009,04,26,16,20,14.20
2009,04,26,16,21,14.20
2009,04,26,16,22,14.20
2009,04,26,16,23,14.30
2009,04,26,16,24,14.50
2009,04,26,16,25,14.60
2009,04,26,16,26,14.60
2009,04,26,16,27,14.70
2009,04,26,16,28,14.80
2009,04,26,16,29,14.80
2009,04,26,16,30,14.70
2009,04,26,16,31,14.70
2009,04,26,16,32,14.60
2009,04,26,16,33,14.60
2009,04,26,16,34,14.50
2009,04,26,16,35,14.50
2009,04,26,16,36,14.50
2009,04,26,16,37,14.50
2009,04,26,16,38,14.60
2009,04,26,16,39,14.60
2009,04,26,16,40,14.40
2009,04,26,16,41,14.40
2009,04,26,16,42,14.50
2009,04,26,16,43,14.50
2009,04,26,16,44,14.50
2009,04,26,16,45,14.60
2009,04,26,16,46,14.60
2009,04,26,16,47,14.60
2009,04,26,16,48,14.60
2009,04,26,16,49,14.60
2009,04,26,16,50,14.60
2009,04,26,16,51,14.60
2009,04,26,16,52,14.60
2009,04,26,16,53,14.50
2009,04,26,16,54,14.50
2009,04,26,16,55,14.50
2009,04,26,16,56,14.60
2009,04,26,16,57,14.60
2009,04,26,16,58,14.70
2009,04,26,16,59,14.80
2009,04,26,17,00,14.90
2009,04,26,17,01,15.00
2009,04,26,17,02,15.10
2009,04,26,17,03,15.10
2009,04,26,17,04,15.20
2009,04,26,17,05,15.20
2009,04,26,17,06,15.20
2009,04,26,17,07,15.10
2009,04,26,17,08,15.10
2009,04,26,17,09,15.00
2009,04,26,17,10,14.90
2009,04,26,17,11,14.90
2009,04,26,17,12,14.80
2009,04,26,17,13,14.80
2009,04,26,17,14,14.80
2009,04,26,17,15,14.80
2009,04,26,17,16,14.70
2009,04,26,17,17,14.70
2009,04,26,17,18,14.70
2009,04,26,17,19,14.70
2009,04,26,17,20,14.80
2009,04,26,17,21,14.80
2009,04,26,17,22,14.80
2009,04,26,17,23,14.80
2009,04,26,17,24,14.80
2009,04,26,17,25,14.80
2009,04,26,17,26,14.90
2009,04,26,17,27,15.00
2009,04,26,17,28,15.00
2009,04,26,17,29,15.10
2009,04,26,17,30,15.20
2009,04,26,17,31,15.20
2009,04,26,17,32,15.10
2009,04,26,17,33,15.10
2009,04,26,17,34,15.00
2009,04,26,17,35,14.90
2009,04,26,17,36,14.80
2009,04,26,17,37,14.70
2009,04,26,17,38,14.60
2009,04,26,17,39,14.60
2009,04,26,17,40,14.60
2009,04,26,17,41,14.50
2009,04,26,17,42,14.50
2009,04,26,17,43,14.40
2009,04,26,17,44,14.30
2009,04,26,17,45,14.20
2009,04,26,17,46,14.20
2009,04,26,17,47,14.20
2009,04,26,17,48,14.20
2009,04,26,17,49,14.20
2009,04,26,17,50,14.20
2009,04,26,17,51,14.20
2009,04,26,17,52,14.20
2009,04,26,17,53,14.20
2009,04,26,17,54,14.20
2009,04,26,17,55,14.20
2009,04,26,17,56,14.20
2009,04,26,17,57,14.20
2009,04,26,17,58,14.30
2009,04,26,17,59,14.40
2009,04,26,18,00,14.40
2009,04,26,18,01,14.40
2009,04,26,18,02,14.30
2009,04,26,18,03,14.20
2009,04,26,18,04,14.30
2009,04,26,18,05,14.30
2009,04,26,18,06,14.20
2009,04,26,18,07,14.10
2009,04,26,18,08,14.00
2009,04,26,18,09,14.10
2009,04,26,18,10,14.10
2009,04,26,18,11,14.10
2009,04,26,18,12,14.10
2009,04,26,18,13,14.10
2009,04,26,18,14,14.10
2009,04,26,18,15,14.10
2009,04,26,18,16,14.10
2009,04,26,18,17,14.20
2009,04,26,18,18,14.20
2009,04,26,18,19,14.20
2009,04,26,18,20,14.20
2009,04,26,18,21,14.20
2009,04,26,18,22,14.20
2009,04,26,18,23,14.20
2009,04,26,18,24,14.30
2009,04,26,18,25,14.30
2009,04,26,18,26,14.30
2009,04,26,18,27,14.20
2009,04,26,18,28,14.20
2009,04,26,18,29,14.20
2009,04,26,18,30,14.30
2009,04,26,18,31,14.30
2009,04,26,18,32,14.30
2009,04,26,18,33,14.30
2009,04,26,18,34,14.40